Home > Weather > Dundee > Past weeks

Flag for United Kingdom Past Weather in Dundee, Scotland, United Kingdom — Yesterday and Last 2 Weeks

Now
61 °F

Scattered showers. Scattered clouds.


Feels Like: 61 °F
Forecast: 49 / 64 °F
Wind: 14 mph from Southwest

Location: Dundee / Riverside

Current Time: Jun 26, 2016 at 9:56:19 PM

Latest Report: Jun 26, 2016 at 8:20 PM


Visibility: N/A

Pressure: 29.77 "Hg

Humidity: 94%

Dew Point: 59 °F

Location of DundeeLocation

Past Weather in Dundee — Graph

°F

Dundee Temperature Yesterday

Maximum temperature yesterday: 64 °F (at 1:20 PM)
Minimum temperature yesterday: 57 °F (at 8:20 AM)
Average temperature yesterday: 59 °F

High & Low Weather Summary for the Past Weeks

 TemperatureHumidityPressure
High72 °F (Jun 23, 1:50 PM)100% (Jun 12, 9:50 AM)30.12 "Hg (Jun 12, 9:50 AM)
Low50 °F (Jun 16, 6:20 AM)53% (Jun 23, 12:50 PM)29.42 "Hg (Jun 14, 2:50 PM)
Average58 °F85%29.78 "Hg
* Reported Jun 12 9:20 AM — Jun 26 8:20 PM, Dundee, Weather by CustomWeather, © 2016

Note: Actual official high and low records may vary slightly from our data, if they occured in-between our weather recording intervals... More about our weather records

Advertising

Dundee Weather History for the Previous 24 Hours

Scroll right to see more
 ConditionsComfort  
Time TempWeatherWind HumidityBarometerVisibility
8:20 PM
Sun, Jun 26
61 °FScattered showers. Scattered clouds.14 mph94%29.77 "HgN/A
7:50 PM61 °FScattered clouds.13 mph94%29.77 "HgN/A
7:20 PM61 °FScattered clouds.13 mph88%29.77 "HgN/A
6:50 PM59 °FScattered clouds.14 mph100%29.80 "HgN/A
6:20 PM59 °FBroken clouds.13 mph94%29.80 "HgN/A
5:50 PM57 °FLight rain. Fog.18 mph100%29.80 "Hg2 mi
5:20 PM59 °FLight rain. Fog.16 mph94%29.83 "Hg3 mi
4:50 PM59 °FLight rain. Scattered clouds.14 mph94%29.83 "HgN/A
4:20 PM59 °FLight rain. Scattered clouds.17 mph94%29.83 "HgN/A
3:50 PM61 °FLight rain. Scattered clouds.21 mph88%29.83 "HgN/A
3:20 PM63 °FPassing clouds.17 mph77%29.83 "HgN/A
2:50 PM66 °FPassing clouds.22 mph73%29.83 "HgN/A
2:20 PM68 °FPassing clouds.17 mph64%29.83 "HgN/A
1:50 PM70 °FPassing clouds.13 mph64%29.86 "HgN/A
1:20 PM68 °FPassing clouds.13 mph69%29.86 "HgN/A
12:50 PM68 °FPassing clouds.14 mph69%29.86 "HgN/A
12:20 PM68 °FPassing clouds.13 mph73%29.89 "HgN/A
11:50 AM66 °FScattered clouds.14 mph78%29.89 "HgN/A
11:20 AM66 °FScattered clouds.7 mph78%29.92 "HgN/A
10:50 AM64 °FScattered clouds.7 mph78%29.92 "HgN/A
10:20 AM63 °FScattered clouds.10 mph83%29.92 "HgN/A
9:50 AM63 °FScattered clouds.8 mph83%29.92 "HgN/A
9:20 AM61 °FScattered clouds.10 mph88%29.95 "HgN/A
8:50 AM59 °FScattered clouds.7 mph94%29.95 "HgN/A
8:20 AM61 °FScattered clouds.6 mph88%29.95 "HgN/A
Weather by CustomWeather, © 2016

See weather overviewHow to use our weather pages